GW1062 Weather Reports


Display with metric or nautical units.
time (UTC)temp
F
wind
direction
speed
MPH
gust
MPH
rain 1hr
in
rain 24hr
in
rain mn
in
humidity
%
barometer
mb
20260505090001 45 6 0.0 2.0 0.00 0.00 0.00 55 969.7
20260505084601 45 6 0.0 3.0 0.00 0.00 0.00 54 969.4
20260505083105 45 6 0.0 4.0 0.00 0.00 0.00 55 968.9
20260505081559 46 6 1.0 4.0 0.00 0.00 0.00 54 968.9
20260505080056 46 6 0.0 5.0 0.00 0.00 0.00 53 968.9
20260505074554 46 5 2.0 5.0 0.00 0.00 0.00 52 969.4
20260505073053 47 360 1.0 3.0 0.00 0.00 0.00 52 969.3
20260505071548 47 9 0.0 3.0 0.00 0.00 0.00 51 969.8
20260505070046 48 360 1.0 5.0 0.00 0.00 0.00 50 970.1
20260505064543 48 360 0.0 5.0 0.00 0.00 0.00 51 969.3
20260505063042 49 360 1.0 7.0 0.00 0.00 0.00 50 969.3
20260505061545 49 360 2.0 5.0 0.00 0.00 0.00 50 969.2
20260505060039 50 360 1.0 7.0 0.00 0.00 0.00 49 969.3
20260505054539 50 360 4.0 12.0 0.00 0.00 0.00 46 969.1
20260505053040 51 360 4.0 13.0 0.00 0.00 0.00 47 968.8
20260505051531 51 360 6.0 12.0 0.00 0.00 0.00 45 968.5
20260505041622 52 360 10.0 24.0 0.00 0.00 0.00 46 968.0
20260505040019 53 360 11.0 21.0 0.00 0.00 0.00 46 967.6
20260505034518 53 360 13.0 21.0 0.00 0.00 0.00 47 967.7
20260505033019 53 360 11.0 19.0 0.00 0.00 0.00 50 967.7
20260505031516 54 360 11.0 24.0 0.00 0.00 0.00 46 967.8
20260505030020 55 360 15.0 24.0 0.00 0.00 0.00 44 967.8
20260505024615 55 360 16.0 24.0 0.00 0.00 0.00 43 967.7
20260505023011 56 360 10.0 21.0 0.00 0.00 0.00 45 967.2
20260505021511 57 360 13.0 21.0 0.00 0.00 0.00 43 966.9
20260505020012 58 360 11.0 19.0 0.00 0.00 0.00 44 966.8
20260505014511 58 360 10.0 17.0 0.00 0.00 0.00 43 965.9
20260505013008 58 360 13.0 25.0 0.00 0.00 0.00 42 965.6
20260505011508 59 360 15.0 28.0 0.00 0.00 0.00 40 966.0
20260505010007 59 360 11.0 19.0 0.00 0.00 0.00 42 965.8
20260505004608 60 360 14.0 22.0 0.00 0.00 0.00 38 964.9
20260505003005 61 360 9.0 20.0 0.00 0.00 0.00 37 964.8
20260505001505 62 6 13.0 28.0 0.00 0.00 0.00 35 964.9
20260505000006 64 5 11.0 27.0 0.00 0.00 0.00 33 964.5
20260504234503 66 5 15.0 22.0 0.00 0.00 0.00 33 964.5
20260504233002 68 6 11.0 24.0 0.00 0.00 0.00 33 964.1
20260504231506 68 6 11.0 26.0 0.00 0.00 0.00 34 964.0
20260504230002 70 4 14.0 26.0 0.00 0.00 0.00 33 963.9
20260504224501 70 6 8.0 19.0 0.00 0.00 0.00 32 963.6
20260504223100 71 6 11.0 23.0 0.00 0.00 0.00 32 963.3
20260504221605 72 6 12.0 22.0 0.00 0.00 0.00 32 963.0
20260504220059 72 6 10.0 20.0 0.00 0.00 0.00 32 962.9
20260504214603 72 6 13.0 23.0 0.00 0.00 0.00 31 962.6
20260504213103 73 6 13.0 22.0 0.00 0.00 0.00 31 962.5
20260504211555 73 6 11.0 21.0 0.00 0.00 0.00 31 962.3
20260504204634 75 6 9.0 19.0 0.00 0.00 0.00 34 962.1
20260504203052 75 5 13.0 23.0 0.00 0.00 0.00 33 961.9
20260504201551 76 6 11.0 22.0 0.00 0.00 0.00 36 961.9
20260504200055 77 6 8.0 23.0 0.00 0.00 0.00 39 961.6
20260504194553 77 5 11.0 22.0 0.00 0.00 0.00 38 961.4
20260504193047 78 6 13.0 25.0 0.00 0.00 0.00 35 961.3
20260504191547 78 5 12.0 23.0 0.00 0.00 0.00 36 961.0
20260504190055 79 4 16.0 24.0 0.00 0.00 0.00 29 961.1
20260504184558 80 5 14.0 30.0 0.00 0.00 0.00 31 961.0
20260504183041 79 5 13.0 25.0 0.00 0.00 0.00 30 961.2
20260504181539 79 6 16.0 28.0 0.00 0.00 0.00 31 961.3
20260504180038 78 4 16.0 26.0 0.00 0.00 0.00 31 961.3
20260504174536 79 4 16.0 26.0 0.00 0.00 0.00 33 961.4
20260504173033 78 4 17.0 29.0 0.00 0.00 0.00 32 961.5
20260504171540 78 5 15.0 27.0 0.00 0.00 0.00 32 961.5